Fort Dix, NJ

6:40 AM EDT on September 25, 2016 (GMT -0400)
McGuire Air Force Base

Weather History for KWRI - January, 2013

Change the Weather History Date:

Tuesday, January 22, 2013

  Actual Average Record
Temperature  
Mean Temperature 19 °F -  
Max Temperature 24 °F 35 °F 55 °F (1997)
Min Temperature 13 °F 20 °F 3 °F (2014)
Degree Days  
Heating Degree Days 46    
Moisture  
Dew Point 1 °F    
Average Humidity 45    
Maximum Humidity 56    
Minimum Humidity 32    
Precipitation  
Precipitation 0.00 in - - ()
Sea Level Pressure  
Sea Level Pressure 30.04 in    
Wind  
Wind Speed 15 mph (WNW)    
Max Wind Speed 22 mph    
Max Gust Speed 29 mph    
Visibility 10 miles    
Events Snow    
Averages and records for this station are not official NWS values.
T = Trace of Precipitation, MM = Missing Value Source: NWS Daily Summary

Daily Weather History Graph

Daily Weather History Graph

Search for Another Location

Airport or City:

Trip Planner

Search our weather history database for the weather conditions in past years. The results will help you decide how hot, cold, wet, or windy it might be!

Date:

Astronomy

Jan. 22, 2013 Rise Set
Actual Time 7:14 AM EST 5:05 PM EST
Civil Twilight 6:45 AM EST 5:35 PM EST
Nautical Twilight 6:12 AM EST 6:08 PM EST
Astronomical Twilight 5:40 AM EST 6:40 PM EST
Moon 1:26 PM EST (1/22) 3:34 AM EST (1/22)
Length of Visible Light 10h 49m
Length of Day
9h 51m
Waxing Gibbous, 82% of the Moon is Illuminated
Jan 22
Waxing Gibbous
Jan 26
Full
Feb 3
Last Quarter
Feb 10
New
Feb 17
First Quarter

Hourly Weather History & Observations

Time (EST) Temp. Windchill Dew Point Humidity Pressure Visibility Wind Dir Wind Speed Gust Speed Precip Events Conditions
12:55 AM 24.4 °F 13.0 °F 10.8 °F 56% 29.86 in 10.0 mi WNW 12.7 mph - N/A   Clear
1:52 AM 23.0 °F 10.1 °F 8.6 °F 54% 29.88 in 10.0 mi NW 15.0 mph 21.9 mph N/A Snow Light Snow
1:55 AM 23.4 °F 10.6 °F 9.1 °F 55% 29.89 in 10.0 mi WNW 15.0 mph - 0.00 in Snow Light Snow
2:01 AM 23.0 °F 10.1 °F 8.6 °F 54% 29.89 in 10.0 mi WNW 15.0 mph 21.9 mph N/A   Scattered Clouds
2:20 AM 23.0 °F 7.6 °F 8.6 °F 54% 29.89 in 10.0 mi WNW 21.9 mph 28.8 mph N/A Snow Light Snow
2:23 AM 23.0 °F 8.7 °F 8.6 °F 54% 29.89 in 10.0 mi WNW 18.4 mph 28.8 mph N/A   Partly Cloudy
2:25 AM 23.0 °F 8.3 °F 8.6 °F 54% 29.89 in 10.0 mi WNW 19.6 mph 28.8 mph N/A Snow Light Snow
2:35 AM 23.0 °F 7.6 °F 6.8 °F 50% 29.89 in 10.0 mi WNW 21.9 mph 26.5 mph N/A   Clear
2:55 AM 21.7 °F 8.0 °F 6.8 °F 53% 29.90 in 10.0 mi WNW 16.1 mph 25.3 mph 0.00 in   Clear
3:55 AM 20.5 °F 7.4 °F 3.0 °F 47% 29.93 in 10.0 mi West 13.8 mph 20.7 mph N/A   Clear
4:55 AM 19.0 °F 4.5 °F 2.5 °F 49% 29.96 in 10.0 mi WNW 16.1 mph 26.5 mph N/A   Clear
5:55 AM 17.6 °F 5.0 °F 2.1 °F 51% 29.99 in 10.0 mi West 11.5 mph 20.7 mph N/A   Clear
6:55 AM 16.9 °F 2.8 °F 1.4 °F 51% 30.02 in 10.0 mi West 13.8 mph - N/A   Clear
7:55 AM 17.4 °F 5.4 °F 0.9 °F 48% 30.05 in 10.0 mi WNW 10.4 mph - N/A   Clear
8:55 AM 18.7 °F 4.6 °F 1.4 °F 47% 30.07 in 10.0 mi WNW 15.0 mph 21.9 mph N/A   Clear
9:55 AM 19.8 °F 4.1 °F 1.6 °F 45% 30.09 in 10.0 mi NW 19.6 mph 25.3 mph N/A   Clear
10:55 AM 21.4 °F 7.5 °F 2.5 °F 44% 30.09 in 10.0 mi WNW 16.1 mph 21.9 mph N/A   Clear
11:55 AM 19.8 °F 5.0 °F -0.6 °F 41% 30.08 in 10.0 mi WNW 17.3 mph 26.5 mph N/A   Scattered Clouds
12:55 PM 20.7 °F 7.1 °F -1.8 °F 37% 30.06 in 10.0 mi WNW 15.0 mph 25.3 mph N/A   Partly Cloudy
1:55 PM 21.9 °F 7.8 °F -3.1 °F 33% 30.06 in 10.0 mi WNW 17.3 mph 27.6 mph N/A   Clear
2:55 PM 21.4 °F 6.6 °F -4.4 °F 32% 30.07 in 10.0 mi NW 18.4 mph 23.0 mph N/A   Clear
3:55 PM 20.1 °F 5.9 °F -5.3 °F 33% 30.09 in 10.0 mi WNW 16.1 mph 25.3 mph N/A   Clear
4:55 PM 18.0 °F 3.1 °F -4.7 °F 37% 30.12 in 10.0 mi WNW 16.1 mph 24.2 mph N/A   Clear
5:55 PM 17.1 °F 5.8 °F -4.5 °F 38% 30.15 in 10.0 mi WNW 9.2 mph - N/A   Clear
6:55 PM 16.5 °F 6.0 °F -4.5 °F 39% 30.18 in 10.0 mi WNW 8.1 mph - N/A   Clear
7:55 PM 16.2 °F 4.7 °F -5.6 °F 38% 30.20 in 10.0 mi WNW 9.2 mph 19.6 mph N/A   Clear
8:55 PM 15.4 °F 0.4 °F -5.1 °F 40% 30.21 in 10.0 mi WNW 15.0 mph 20.7 mph N/A   Clear
9:55 PM 14.9 °F 0.9 °F -4.9 °F 41% 30.23 in 10.0 mi WNW 12.7 mph 23.0 mph N/A   Clear
10:55 PM 14.5 °F 1.1 °F -5.1 °F 42% 30.24 in 10.0 mi WNW 11.5 mph 17.3 mph N/A   Partly Cloudy
11:55 PM 13.5 °F 0.5 °F -5.1 °F 44% 30.23 in 10.0 mi WNW 10.4 mph - N/A   Clear